CAT,Max TemperatureF,Mean TemperatureF,Min TemperatureF,Max Dew PointF,MeanDew PointF,Min DewpointF,Max Humidity, Mean Humidity, Min Humidity, Max Sea Level PressureIn, Mean Sea Level PressureIn, Min Sea Level PressureIn, Max VisibilityMiles, Mean VisibilityMiles, Min VisibilityMiles, Max Wind SpeedMPH, Mean Wind SpeedMPH, Max Gust SpeedMPH,PrecipitationIn, CloudCover, Events, WindDirDegrees
2013-2-1,93,76,59,66,62,59,94,54,24,30.01,29.94,29.86,19,15,6,7,4,,0.00,1,,106
2013-2-2,92,80,67,70,66,64,68,49,31,29.95,29.87,29.80,19,11,6,9,7,,0.00,5,,106
2013-2-3,91,79,67,68,64,59,94,57,24,29.95,29.90,29.83,19,11,6,9,7,,0.00,3,Thunderstorm,350
2013-2-4,77,,65,67,67,67,65,65,65,,,,19,19,19,8,8,,0.00,,,-1
2013-2-5,75,70,66,72,70,68,92,91,89,30.06,30.06,30.06,19,15,6,5,3,,0.00,6,Rain-Thunderstorm,150
2013-2-6,80,72,65,68,68,67,94,73,58,30.01,29.98,29.95,19,13,6,15,10,,0.00,4,,125
2013-2-7,80,70,68,72,70,68,100,88,74,30.01,29.95,29.89,19,10,6,4,3,,0.00,6,Rain,30
2013-2-8,78,76,71,72,70,68,88,83,78,29.98,29.95,29.92,16,10,6,9,8,,0.00,4,Rain-Thunderstorm,45
2013-2-9,73,68,67,70,68,66,94,92,88,29.98,29.96,29.95,19,10,6,5,4,,0.00,6,,30
2013-2-10,82,74,65,72,69,66,100,84,63,29.98,29.95,29.89,19,10,6,9,8,,0.00,7,,95
2013-2-11,77,72,67,72,69,68,94,88,71,30.01,29.95,29.89,16,10,6,10,9,,0.00,6,Rain,112
2013-2-12,73,70,67,70,69,68,100,93,88,29.98,29.96,29.92,16,9,6,12,9,,0.00,6,Rain,137
2013-2-13,78,65,64,68,66,64,100,89,69,29.98,29.92,29.86,19,10,6,12,10,,0.00,6,Rain,125
2013-2-14,77,,77,68,68,68,74,74,74,29.98,29.98,29.98,6,6,6,7,7,,0.00,6,,50
2013-2-15,86,70,66,71,69,66,94,79,47,29.95,29.95,29.95,19,15,6,6,4,,0.00,6,,345
2013-2-16,84,78,78,70,67,64,74,62,51,30.04,29.96,29.89,6,6,6,7,7,,0.00,4,,130
2013-2-17,82,72,61,68,65,59,94,68,51,30.01,29.97,29.89,19,10,6,12,7,,0.00,2,,103
2013-2-18,83,70,67,68,68,68,83,71,52,29.98,29.98,29.98,19,15,6,12,11,,0.00,6,,110
2013-2-19,,,,,,,,,,,,,,,,,,,,,,
2013-2-20,90,74,61,72,71,69,91,66,46,30.27,30.27,30.27,19,15,6,9,7,,0.00,1,,330
2013-2-21,80,72,68,70,68,66,88,80,70,30.09,30.03,29.95,16,10,6,5,3,,0.00,6,Rain,23
2013-2-22,83,73,64,70,68,64,100,76,51,30.01,30.01,30.01,16,9,5,6,5,,0.00,1,,100
2013-2-23,72,60,60,68,64,61,100,92,84,30.04,30.04,30.04,19,19,19,7,7,,0.00,,,60
2013-2-24,75,66,58,66,64,59,100,79,65,30.04,30.04,30.04,19,19,19,6,5,,0.00,,,50
2013-2-25,85,74,64,68,64,61,81,55,34,30.09,30.06,30.04,19,15,6,16,11,,0.00,3,,110
2013-2-26,85,74,63,68,64,59,88,60,36,30.15,30.09,30.04,19,13,6,9,8,,0.00,2,,98
2013-2-27,87,70,57,64,60,57,100,61,35,30.12,30.08,30.04,19,13,6,6,3,,0.00,1,,77
2013-2-28,91,76,60,66,59,54,100,55,19,30.06,30.03,29.98,19,19,19,4,2,,0.00,,,262